Location: San Martino di Castrozza
(46.2667°N, 11.8000°E)
Time: 15:42:19
(UTC+00:00)

Meteor 2-4 Rocket - Pass Details

Date: 23 April 2021
Orbit: 799 x 909 km, 81.2° (Epoch: 12 May)

Event Time Altitude Azimuth Distance (km) Brightness Sun altitude
Exits shadow 00:34:37 42° 118° (ESE) 1,269 4.5 -28.3°
Maximum altitude 00:35:32 45° 93° (E) 1,210 4.5 -28.2°
Drops below altitude 10° 00:41:06 10° 22° (NNE) 2,576 7.2 -27.8°
Sets 00:43:38 0° 17° (NNE) 3,508 8.2 -27.6°
